Location: Trebic
(49.2170°N, 15.8830°E)
Time: 21:29:59
(UTC+01:00)

Transit 4A - Pass Details

Date: 29 October 2020
Orbit: 862 x 982 km, 66.8° (Epoch: 30 November)

Event Time Altitude Azimuth Distance (km) Brightness Sun altitude
Rises 20:05:06 0° 313° (NW) 3,684 11.9 -33.7°
Reaches altitude 10° 20:08:40 10° 332° (NNW) 2,743 10.8 -34.3°
Enters shadow 20:12:30 18° 9° (N) 2,239 9.9 -34.9°
